Simultaneous Nadir Overpasses (SNOs) Predictions

Prediction of SNOs between GOES-16 and NOAA-20 Satellite Orbit:

Table of predicted SNOs for the next 14.0 days since TLE Epoch: 12/2/2023
Index Date Time (GOES-16) GOES-16 Lat,Lon NOAA-20 Lat,Lon Distance(km) Time Diff (sec)
1 12/02/2023 06:17:33 0.01, -75.20 -0.40, -73.49 196.04 80
2 12/03/2023 18:39:29 -0.00, -75.22 -0.81, -78.79 406.85 80
3 12/04/2023 18:23:25 -0.00, -75.23 0.21, -74.26 110.57 80
4 12/06/2023 06:45:13 0.00, -75.24 0.94, -79.53 488.95 80
5 12/07/2023 06:23:49 0.00, -75.25 -0.08, -75.01 28.84 80
6 12/09/2023 18:26:59 -0.00, -75.29 -0.14, -75.77 55.06 80
7 12/10/2023 18:10:55 -0.01, -75.31 0.89, -71.24 463.17 80
8 12/12/2023 06:32:42 0.01, -75.32 0.30, -76.50 135.46 80
9 12/13/2023 06:11:18 0.01, -75.34 -0.73, -71.98 382.47 80
10 12/14/2023 18:33:14 -0.01, -75.36 -0.42, -77.29 219.18 80
11 12/15/2023 18:17:09 -0.00, -75.38 0.56, -72.75 299.10 80
